TimeCST,TemperatureF,Dew PointF,Humidity,Sea Level PressureIn,VisibilityMPH,Wind Direction,Wind SpeedMPH,Gust SpeedMPH,PrecipitationIn,Events,Conditions,WindDirDegrees,DateUTC
12:12 AM,19.4,5.0,54,30.02,10.0,Calm,Calm,-,N/A,,Overcast,0,2013-03-04 06:12:00
12:32 AM,19.4,6.8,58,30.02,10.0,Calm,Calm,-,N/A,,Scattered Clouds,0,2013-03-04 06:32:00
12:52 AM,19.4,6.8,58,30.03,10.0,Calm,Calm,-,N/A,,Scattered Clouds,0,2013-03-04 06:52:00
1:12 AM,19.4,8.6,63,30.02,10.0,Calm,Calm,-,N/A,,Mostly Cloudy,0,2013-03-04 07:12:00
1:52 AM,19.4,8.6,63,30.02,10.0,Calm,Calm,-,N/A,,Mostly Cloudy,0,2013-03-04 07:52:00
2:12 AM,19.4,8.6,63,30.01,10.0,Calm,Calm,-,N/A,,Overcast,0,2013-03-04 08:12:00
2:32 AM,19.4,8.6,63,30.01,10.0,Calm,Calm,-,N/A,,Overcast,0,2013-03-04 08:32:00
2:52 AM,19.4,8.6,63,30.01,10.0,Calm,Calm,-,N/A,,Overcast,0,2013-03-04 08:52:00
3:32 AM,19.4,8.6,63,30.00,10.0,Calm,Calm,-,N/A,,Overcast,0,2013-03-04 09:32:00
3:52 AM,19.4,6.8,58,30.00,10.0,Calm,Calm,-,N/A,,Overcast,0,2013-03-04 09:52:00
4:12 AM,19.4,6.8,58,30.00,10.0,Calm,Calm,-,N/A,,Overcast,0,2013-03-04 10:12:00
4:32 AM,21.2,5.0,50,29.99,10.0,Calm,Calm,-,N/A,,Overcast,0,2013-03-04 10:32:00
4:52 AM,21.2,5.0,50,29.99,10.0,Calm,Calm,-,N/A,,Overcast,0,2013-03-04 10:52:00
5:12 AM,21.2,5.0,50,29.99,10.0,Calm,Calm,-,N/A,,Overcast,0,2013-03-04 11:12:00
5:32 AM,21.2,5.0,50,29.99,10.0,Calm,Calm,-,N/A,,Overcast,0,2013-03-04 11:32:00
5:52 AM,19.4,5.0,54,29.99,10.0,Calm,Calm,-,N/A,,Overcast,0,2013-03-04 11:52:00
6:12 AM,19.4,5.0,54,30.00,10.0,Calm,Calm,-,N/A,,Overcast,0,2013-03-04 12:12:00
6:32 AM,19.4,5.0,54,30.00,10.0,Calm,Calm,-,N/A,,Overcast,0,2013-03-04 12:32:00
6:52 AM,19.4,5.0,54,30.00,10.0,Calm,Calm,-,N/A,,Overcast,0,2013-03-04 12:52:00
7:13 AM,21.2,5.0,50,30.00,10.0,Calm,Calm,-,N/A,,Overcast,0,2013-03-04 13:13:00
7:32 AM,21.2,5.0,50,30.01,10.0,Calm,Calm,-,N/A,,Overcast,0,2013-03-04 13:32:00
7:53 AM,21.2,5.0,50,30.01,10.0,Calm,Calm,-,N/A,,Overcast,0,2013-03-04 13:53:00
8:12 AM,21.2,3.2,46,30.01,10.0,Calm,Calm,-,N/A,,Overcast,0,2013-03-04 14:12:00
8:32 AM,23.0,3.2,43,30.01,10.0,Calm,Calm,-,N/A,,Overcast,0,2013-03-04 14:32:00
8:52 AM,23.0,1.4,39,30.01,10.0,Calm,Calm,-,N/A,,Overcast,0,2013-03-04 14:52:00
9:12 AM,23.0,1.4,39,30.01,10.0,Calm,Calm,-,N/A,,Overcast,0,2013-03-04 15:12:00
9:32 AM,24.8,1.4,36,30.01,10.0,Calm,Calm,-,N/A,,Overcast,0,2013-03-04 15:32:00
9:52 AM,26.6,-0.4,31,30.01,10.0,Calm,Calm,-,N/A,,Overcast,0,2013-03-04 15:52:00
10:12 AM,28.4,1.4,31,30.01,10.0,Calm,Calm,-,N/A,,Overcast,0,2013-03-04 16:12:00
10:32 AM,30.2,-4.0,23,30.01,10.0,Calm,Calm,-,N/A,,Overcast,0,2013-03-04 16:32:00
10:52 AM,30.2,-4.0,23,30.00,10.0,Calm,Calm,-,N/A,,Overcast,0,2013-03-04 16:52:00
11:12 AM,30.2,-4.0,23,30.00,10.0,ESE,5.8,-,N/A,,Overcast,110,2013-03-04 17:12:00
11:32 AM,30.2,-4.0,23,30.00,10.0,ESE,3.5,-,N/A,,Overcast,110,2013-03-04 17:32:00
11:52 AM,32.0,-4.0,21,29.99,10.0,ESE,6.9,-,N/A,,Overcast,110,2013-03-04 17:52:00
12:12 PM,32.0,-4.0,21,29.98,10.0,ESE,11.5,17.3,N/A,,Overcast,110,2013-03-04 18:12:00
12:52 PM,32.0,-5.8,20,29.97,10.0,SE,6.9,17.3,N/A,,Overcast,130,2013-03-04 18:52:00
1:12 PM,32.0,-4.0,21,29.97,10.0,Calm,Calm,-,N/A,,Overcast,0,2013-03-04 19:12:00
1:32 PM,32.0,-4.0,21,29.96,10.0,ESE,8.1,-,N/A,,Overcast,120,2013-03-04 19:32:00
1:52 PM,32.0,-4.0,21,29.96,10.0,Calm,Calm,-,N/A,,Overcast,0,2013-03-04 19:52:00
2:12 PM,32.0,-2.2,23,29.96,10.0,ESE,9.2,-,N/A,,Overcast,110,2013-03-04 20:12:00
2:32 PM,32.0,-0.4,25,29.96,10.0,Calm,Calm,-,N/A,,Overcast,0,2013-03-04 20:32:00
2:52 PM,32.0,-0.4,25,29.96,10.0,SE,3.5,-,N/A,,Overcast,130,2013-03-04 20:52:00
3:12 PM,32.0,1.4,27,29.96,10.0,Calm,Calm,-,N/A,,Overcast,0,2013-03-04 21:12:00
3:32 PM,32.0,3.2,30,29.97,10.0,Calm,Calm,-,N/A,,Overcast,0,2013-03-04 21:32:00
3:52 PM,30.2,3.2,32,29.97,10.0,Calm,Calm,-,N/A,,Overcast,0,2013-03-04 21:52:00
4:12 PM,30.2,6.8,37,29.97,10.0,Calm,Calm,-,N/A,Snow,Light Snow,0,2013-03-04 22:12:00
4:32 PM,30.2,12.2,47,29.98,5.0,Calm,Calm,-,N/A,Snow,Light Snow,0,2013-03-04 22:32:00
4:52 PM,28.4,12.2,51,29.98,7.0,Calm,Calm,-,N/A,Snow,Light Snow,0,2013-03-04 22:52:00
5:12 PM,28.4,14.0,55,29.99,5.0,East,6.9,-,N/A,Snow,Light Snow,100,2013-03-04 23:12:00
5:32 PM,28.4,14.0,55,29.99,7.0,Calm,Calm,-,N/A,Snow,Light Snow,0,2013-03-04 23:32:00
5:52 PM,28.4,15.8,59,29.99,5.0,Calm,Calm,-,N/A,Snow,Light Snow,0,2013-03-04 23:52:00
6:13 PM,28.4,15.8,59,30.00,7.0,Calm,Calm,-,N/A,Snow,Light Snow,0,2013-03-05 00:13:00
6:32 PM,28.4,17.6,64,30.00,4.0,Calm,Calm,-,N/A,Snow,Light Snow,0,2013-03-05 00:32:00
6:52 PM,26.6,17.6,69,30.00,4.0,Calm,Calm,-,N/A,Snow,Light Snow,0,2013-03-05 00:52:00
7:12 PM,26.6,17.6,69,30.00,4.0,Calm,Calm,-,N/A,Snow,Light Snow,0,2013-03-05 01:12:00
7:32 PM,26.6,19.4,74,29.99,4.0,Calm,Calm,-,N/A,Snow,Light Snow,0,2013-03-05 01:32:00
7:52 PM,26.6,19.4,74,30.00,3.0,Calm,Calm,-,N/A,Snow,Light Snow,0,2013-03-05 01:52:00
8:12 PM,26.6,19.4,74,30.00,3.0,Calm,Calm,-,0.01,Snow,Light Snow,0,2013-03-05 02:12:00
8:32 PM,26.6,19.4,74,30.01,5.0,Calm,Calm,-,0.01,Snow,Light Snow,0,2013-03-05 02:32:00
8:52 PM,26.6,19.4,74,30.02,1.8,Calm,Calm,-,0.01,Snow,Light Snow,0,2013-03-05 02:52:00
9:12 PM,26.6,19.4,74,30.03,3.0,Calm,Calm,-,N/A,Snow,Light Snow,0,2013-03-05 03:12:00
9:32 PM,26.6,19.4,74,30.04,4.0,Calm,Calm,-,0.01,Snow,Light Snow,0,2013-03-05 03:32:00
9:53 PM,26.6,19.4,74,30.04,7.0,Calm,Calm,-,0.02,Snow,Light Snow,0,2013-03-05 03:53:00
10:12 PM,26.6,19.4,74,30.03,7.0,Calm,Calm,-,N/A,Snow,Light Snow,0,2013-03-05 04:12:00
10:32 PM,26.6,19.4,74,30.03,3.0,Calm,Calm,-,N/A,Snow,Light Snow,0,2013-03-05 04:32:00
10:52 PM,26.6,19.4,74,30.02,2.0,Calm,Calm,-,0.01,Snow,Light Snow,0,2013-03-05 04:52:00
11:12 PM,26.6,19.4,74,30.02,2.5,Calm,Calm,-,N/A,Snow,Light Snow,0,2013-03-05 05:12:00
11:32 PM,26.6,19.4,74,30.03,3.0,Calm,Calm,-,N/A,Snow,Light Snow,0,2013-03-05 05:32:00
11:52 PM,26.6,19.4,74,30.03,1.8,Calm,Calm,-,N/A,Snow,Light Snow,0,2013-03-05 05:52:00